Theta_e
332 328 332 333 333 332 333 333 333 332 336 337 336 336 339 335 333 336 337 333 332 331 330 340 342 341 339 339 338 337 338 335 333 333 332 332 327 329 330 330 329 328 324 325
329 328 332 332 333 333 332 333 333 331 331 330 332 337 335 334 335 331 330 330 330 333 334 342 341 340 340 340 338 336 332 335 334 333 333 330 328 326 329 325 323 322 321 319
331 332 333 333 332 332 331 331 332 331 331 330 333 339 338 337 336 335 333 331 333 332 336 342 338 339 340 339 338 330 336 335 334 331 330 329 322 323 318 320 322 325 321 321
333 332 332 332 334 332 332 331 332 332 331 333 332 334 340 338 335 335 335 335 335 336 333 341 338 335 339 338 334 332 335 335 332 328 326 324 324 320 319 323 321 322 321 322
330 331 333 333 334 332 331 331 330 330 332 333 335 333 342 335 333 330 331 333 335 338 337 336 333 340 338 337 335 331 333 334 332 326 322 321 323 322 323 318 320 322 322 320
326 329 332 332 332 332 331 331 329 329 328 333 336 332 338 337 336 333 333 336 340 341 338 336 334 338 336 337 333 332 330 333 326 320 323 322 324 323 319 318 317 318 320 321
328 328 328 331 332 331 330 329 329 330 330 333 333 335 339 336 333 331 331 336 333 334 340 340 339 335 333 335 333 334 332 328 326 326 323 321 322 324 324 321 321 320 321 320
329 331 332 332 332 331 330 331 335 340 342 336 336 343 343 334 333 333 333 334 331 330 333 333 332 335 330 329 330 330 326 323 322 320 320 322 322 322 322 322 321 317 316 315
333 333 334 331 332 331 333 333 332 336 336 338 339 339 336 334 334 332 335 332 331 329 333 331 329 328 327 326 326 324 321 321 321 322 322 323 321 321 319 317 315 315 314 313
334 338 336 334 333 333 332 332 337 339 337 338 340 338 340 336 335 330 335 334 334 333 331 329 329 327 324 322 321 322 320 320 322 321 320 319 317 314 314 313 312 312 309 306
335 336 336 335 335 334 336 336 334 334 338 340 341 341 333 333 331 328 328 335 334 333 331 330 324 324 322 321 321 321 321 319 318 316 316 314 313 312 310 308 308 308 307 306
337 337 337 337 334 332 333 334 335 335 340 338 337 337 333 332 330 326 328 328 326 326 326 324 324 324 320 320 320 320 319 318 316 315 314 313 310 309 309 310 310 308 307 306
334 337 335 335 336 334 336 334 332 332 332 334 339 338 332 330 328 326 325 327 326 325 324 323 322 322 321 320 320 318 317 316 315 314 312 309 310 310 311 310 309 307 307 306
334 339 337 336 336 336 336 335 334 332 337 337 337 338 334 331 324 323 324 325 325 324 322 323 320 321 321 319 318 317 316 314 313 311 310 311 311 311 310 309 308 306 305 304
334 340 338 336 336 337 337 336 336 335 334 334 336 335 331 328 320 321 321 321 322 321 320 319 319 318 318 318 316 315 314 314 312 311 311 312 312 311 310 310 306 305 305 305
331 338 338 338 336 338 337 336 334 334 333 335 333 331 328 324 321 320 320 320 320 320 319 318 318 318 318 317 315 314 314 313 312 312 312 312 312 311 311 309 305 304 306 307
334 337 338 339 338 338 339 336 337 335 333 330 331 326 322 321 321 320 320 319 319 319 319 319 318 318 316 315 315 314 314 313 312 313 313 312 312 312 310 308 306 305 307 307
336 336 336 335 339 341 337 335 334 333 333 328 327 323 321 321 320 320 320 320 319 319 319 319 318 317 315 315 315 314 314 313 313 313 313 312 311 311 310 308 307 306 307 307
333 333 338 340 337 335 335 337 338 331 331 330 328 324 322 321 322 322 321 321 320 319 319 318 318 317 316 315 315 315 315 314 314 313 313 313 312 311 309 308 307 307 307 308
330 331 335 338 337 341 339 336 332 333 333 327 325 323 322 321 321 320 321 319 319 318 318 317 317 317 316 315 315 315 315 314 314 314 314 313 312 311 310 309 309 308 308 309
334 335 337 337 339 339 332 332 334 336 333 328 325 324 323 321 322 321 320 318 318 318 318 318 317 316 316 316 315 315 315 314 314 314 314 314 313 311 312 311 309 309 309 309
335 334 332 333 337 339 332 333 338 333 329 327 326 323 322 321 320 320 320 318 318 319 319 319 319 317 316 316 315 315 315 315 315 314 314 314 313 310 312 312 309 310 309 309
336 331 331 333 335 329 330 330 327 326 325 323 324 323 321 321 320 319 319 318 318 319 319 319 319 319 318 318 317 315 314 314 314 314 314 314 314 310 312 310 309 310 310 309
334 331 333 335 336 331 328 326 323 321 322 322 321 321 321 320 318 318 318 318 318 319 319 319 319 319 319 319 318 318 317 315 314 314 314 313 313 313 311 309 310 309 309 309
335 333 337 333 330 327 326 324 323 321 320 321 320 320 320 320 319 318 318 318 319 319 319 319 319 319 319 319 319 319 318 316 314 313 313 313 313 313 313 311 310 310 309 309
328 334 333 332 329 327 326 324 323 322 322 321 321 321 321 320 320 320 320 319 319 319 320 320 320 320 320 320 319 319 318 317 314 314 313 313 313 312 313 313 311 311 309 310
Wind_Speed
18 3 5 8 13 12 15 11 19 23 14 9 14 15 12 21 23 17 21 13 17 19 9 21 20 19 25 26 28 27 25 19 16 16 16 17 12 12 11 13 13 19 17 16
6 7 3 10 15 12 13 14 18 5 16 7 7 9 4 4 9 7 9 10 16 17 25 6 12 9 19 19 10 2 16 14 16 16 16 17 8 12 12 15 14 17 17 19
9 3 13 17 11 6 5 8 12 15 9 9 3 3 7 4 10 1 6 9 17 18 3 8 16 17 21 25 14 5 17 18 18 18 21 12 13 17 7 19 15 17 20 21
3 7 1 25 21 7 4 12 14 15 4 2 5 3 6 7 7 1 13 17 19 17 8 8 20 8 20 16 5 13 15 16 13 5 10 13 10 12 14 14 5 7 10 13
11 14 14 18 24 14 8 16 14 9 3 2 5 4 3 4 7 7 17 19 18 8 5 11 10 11 16 12 7 6 15 16 12 6 7 2 10 15 13 9 10 10 16 19
8 18 20 24 19 17 7 16 10 6 3 2 3 3 2 3 4 6 5 24 25 23 16 6 9 12 3 7 9 9 13 10 6 14 3 5 12 17 16 21 20 21 24 24
11 12 10 4 4 6 9 7 4 5 3 5 3 4 3 3 4 8 7 18 22 21 17 15 10 14 7 7 6 3 3 5 8 3 3 10 15 13 15 15 16 20 21 21
4 7 7 5 0 3 5 3 3 3 3 6 6 4 5 7 17 23 17 18 15 20 23 25 19 16 17 13 8 8 9 6 2 5 11 8 9 12 12 16 17 17 16 17
3 5 12 9 10 2 1 4 7 4 6 5 4 1 6 11 12 10 18 22 20 18 19 21 23 22 16 14 11 6 6 7 6 6 4 2 4 8 11 12 15 23 26 28
3 4 5 3 1 9 4 6 7 2 1 4 4 4 3 1 3 10 15 22 21 16 17 19 17 11 10 10 9 8 10 7 5 2 3 10 11 12 15 20 26 29 29 31
5 3 5 8 4 2 2 3 6 4 2 4 3 3 6 3 1 5 17 22 19 20 23 18 12 8 8 7 9 10 6 8 6 7 10 13 17 21 25 23 20 19 30 31
9 3 2 1 7 12 4 6 7 4 5 4 5 5 4 5 9 12 17 15 20 22 19 11 4 9 13 7 10 6 2 4 8 11 15 20 22 18 22 20 23 31 36 34
4 3 3 5 5 5 4 3 4 2 1 7 7 5 4 7 2 12 11 13 12 10 7 4 3 4 8 8 2 3 5 6 10 14 20 18 18 19 22 23 30 35 33 32
3 7 8 7 6 5 6 12 10 10 3 4 5 5 5 7 5 10 9 6 14 12 5 4 10 10 9 4 2 4 7 11 15 17 17 18 19 19 17 25 33 31 30 31
3 5 7 9 11 6 15 23 12 7 10 4 9 8 9 7 7 9 7 4 7 6 9 9 8 5 3 5 5 8 10 12 13 16 17 19 20 14 19 29 36 30 29 27
2 6 10 4 6 4 13 25 2 14 5 14 14 6 8 13 14 9 7 5 7 9 6 2 1 1 2 5 7 8 9 13 14 16 19 19 14 18 24 36 28 25 25 28
4 5 5 6 4 6 5 1 5 7 7 8 7 7 10 7 9 10 9 10 10 8 8 7 4 3 4 4 6 10 12 10 12 15 18 12 17 23 30 32 25 21 23 25
1 2 4 6 4 1 6 1 9 13 10 9 9 7 11 11 6 9 14 12 7 3 1 3 3 4 7 8 6 9 13 12 11 14 14 17 20 24 31 23 25 22 23 26
9 4 4 4 6 6 1 1 3 2 7 5 9 8 12 9 14 15 11 9 7 7 6 3 2 5 8 10 10 11 11 14 12 15 18 19 20 24 22 21 24 19 22 26
4 6 5 3 5 2 6 10 18 21 2 9 13 10 9 4 4 3 5 4 7 5 2 5 7 8 11 11 12 14 15 14 15 16 18 18 21 23 20 18 23 21 19 22
4 2 3 3 1 4 3 2 23 7 4 7 7 4 4 3 7 10 8 7 3 2 2 6 6 7 8 10 13 14 16 16 14 16 17 18 21 22 20 21 21 20 19 19
3 2 1 2 2 1 10 1 4 4 2 0 2 8 10 8 5 2 7 7 5 3 6 10 9 9 9 11 15 16 18 17 14 17 17 20 21 19 17 20 15 16 12 17
2 6 5 6 4 5 10 10 6 5 4 7 3 3 4 6 5 5 4 5 5 8 8 10 10 10 12 11 13 14 16 15 18 17 17 21 23 10 18 16 13 12 15 21
4 6 2 6 3 9 11 8 9 9 2 2 6 4 4 4 2 5 6 7 9 12 12 11 12 16 15 14 15 17 18 18 17 18 20 20 18 13 12 15 16 13 16 19
3 7 5 4 5 16 11 8 5 4 6 5 3 4 3 7 9 12 13 13 13 14 15 14 17 17 17 20 19 19 16 17 18 20 20 21 18 14 14 14 16 13 15 16
21 3 4 2 9 10 7 6 5 6 4 5 6 8 10 12 12 14 17 16 16 17 13 13 16 19 24 28 26 20 19 19 20 20 20 21 20 18 17 16 15 14 12 14
Wind_Direction
274 304 105 25 329 290 294 281 282 298 211 164 217 83 112 108 112 154 159 181 257 293 277 331 193 195 199 208 201 212 201 209 219 237 252 250 260 273 269 271 266 262 264 271
293 257 217 113 261 242 256 281 304 332 336 348 38 74 100 78 94 100 134 191 257 346 357 339 118 224 204 191 128 294 249 222 222 234 228 257 232 272 297 285 286 273 274 282
255 290 331 325 272 264 308 309 306 303 300 2 54 66 16 23 111 317 322 308 321 336 21 238 222 188 204 214 226 281 218 229 232 242 258 236 221 280 281 266 279 263 272 272
145 67 58 286 293 255 273 276 277 297 22 31 41 272 17 330 352 10 316 336 322 336 295 236 183 256 208 219 102 225 228 242 244 303 276 298 298 254 280 287 284 275 291 289
239 224 220 245 252 246 223 247 258 259 184 112 352 75 211 308 10 358 339 327 347 327 222 205 252 241 203 215 247 198 229 244 246 340 136 88 260 266 262 270 283 267 277 289
263 271 208 225 243 242 217 245 284 278 117 40 194 107 345 351 341 320 333 82 88 86 103 132 184 193 297 247 194 268 244 262 154 170 256 255 273 273 277 282 273 289 284 288
272 262 270 129 50 25 358 10 343 325 338 235 89 73 252 334 289 225 231 93 85 88 114 131 136 143 152 183 204 190 178 153 177 221 265 286 282 295 297 288 287 290 297 302
292 321 25 29 273 172 257 329 105 295 349 320 30 45 296 257 272 284 108 91 76 82 93 103 114 119 119 105 103 118 131 121 348 324 278 312 315 300 306 308 312 321 323 316
302 326 317 79 343 315 303 76 179 64 344 281 180 218 334 261 272 347 114 95 93 94 95 100 106 110 105 99 88 92 53 37 24 33 22 62 323 304 304 308 310 313 317 314
250 353 354 197 327 35 121 153 70 129 302 316 166 112 224 347 253 54 77 105 111 109 111 111 114 104 60 60 68 71 61 37 90 8 309 297 315 326 326 325 325 316 313 322
348 186 301 325 72 39 336 78 68 110 137 159 301 206 206 233 349 85 101 136 133 135 127 124 111 97 61 60 108 107 95 62 39 356 331 324 327 328 324 328 340 331 328 329
17 31 48 162 102 33 265 151 143 146 201 222 220 255 235 234 298 83 106 107 91 109 121 124 81 130 121 83 112 97 43 327 323 324 324 323 329 339 339 331 330 329 336 330
8 6 9 354 356 19 283 253 178 179 34 216 183 237 206 249 201 109 97 135 137 124 87 53 21 114 126 132 127 7 340 329 320 318 327 346 346 334 330 328 334 334 327 328
203 186 191 203 215 138 316 276 226 191 174 186 168 151 195 245 156 96 92 95 134 134 102 134 85 134 141 124 14 329 324 324 325 336 350 348 339 330 333 337 337 334 340 338
4 280 274 266 244 178 223 253 249 216 229 190 161 144 196 215 135 106 116 72 120 102 111 99 98 91 63 34 8 334 325 328 337 348 345 346 332 317 336 336 343 346 351 350
42 300 311 299 353 6 209 242 127 270 85 113 129 152 166 153 126 125 118 138 103 108 112 73 69 186 359 355 340 318 316 336 340 337 338 341 311 325 335 339 351 351 358 1
65 264 351 299 331 25 315 225 31 23 52 115 127 162 120 114 139 151 161 127 98 91 98 95 65 23 339 328 327 322 327 333 333 331 339 332 332 333 336 342 350 354 3 8
153 211 88 256 264 161 253 184 112 119 230 116 131 120 135 145 178 194 165 146 133 116 359 342 334 337 333 326 314 303 316 320 322 327 329 326 328 331 339 344 344 344 357 0
221 202 138 96 292 290 196 295 307 65 359 85 111 93 114 112 97 78 98 111 122 126 119 104 359 316 313 311 307 306 301 314 312 319 316 316 325 334 341 342 347 352 354 357
65 101 98 113 239 319 339 344 304 320 53 55 72 70 97 74 100 220 103 116 127 110 37 325 310 294 309 293 296 302 299 297 298 308 313 306 325 334 336 330 344 342 341 356
345 8 138 238 273 97 298 334 284 271 209 57 63 70 130 117 148 158 167 160 186 278 296 301 301 305 302 276 294 296 294 296 297 304 306 302 318 326 331 331 337 338 330 346
276 343 22 313 1 181 197 200 285 169 90 78 132 77 89 90 85 33 204 188 181 210 274 296 277 280 283 286 292 292 289 295 284 300 292 301 312 315 319 322 336 338 341 339
207 192 178 192 227 184 185 115 84 60 33 20 53 87 98 79 48 334 200 191 241 247 279 277 271 271 282 291 290 285 289 286 289 290 280 297 311 302 312 317 331 325 320 333
244 166 227 178 207 182 161 123 85 43 97 40 29 84 108 103 301 272 275 263 260 257 260 267 273 281 269 269 283 290 294 290 283 278 283 291 303 303 305 312 317 305 310 325
230 141 221 113 72 107 103 84 65 39 34 32 10 354 277 266 250 244 252 258 259 263 264 268 270 266 274 281 284 292 286 279 275 281 283 286 293 291 295 306 309 301 313 314
341 231 20 144 86 109 96 78 59 51 359 311 295 281 278 271 276 273 259 263 273 279 278 282 292 287 294 291 279 276 276 276 278 275 274 280 286 284 279 289 290 309 305 305